Home   Weather   San Salvador   Past weeks

Flag for El Salvador Past Weather in San Salvador, El Salvador — Yesterday and Last 2 Weeks

Now
72 °F

Passing clouds.


Feels Like: 67 °F
Forecast: 67 / 84 °F
Wind: 6 mph from North

Location: San Salvador / Ilopango

Current Time: Oct 1, 2016 at 7:59:38 AM

Latest Report: Oct 1, 2016 at 6:50 AM


Visibility: N/A

Pressure: 30.01 "Hg (27.78 "Hg at 667m altitude)

Humidity: 94%

Dew Point: 70 °F

Location of San SalvadorLocation

Past Weather in San Salvador — Graph

°F

San Salvador Temperature Yesterday

Maximum temperature yesterday: 88 °F (at 1:50 PM)
Minimum temperature yesterday: 68 °F (at 5:50 AM)
Average temperature yesterday: 78 °F

High & Low Weather Summary for the Past Weeks

 TemperatureHumidityPressure
High90 °F (Sep 19, 2:50 PM)100% (Sep 16, 10:50 PM)30.07 "Hg (Sep 16, 10:50 PM)
Low68 °F (Sep 16, 10:50 PM)46% (Sep 28, 2:50 PM)29.86 "Hg (Sep 28, 8:50 AM)
Average77 °F83%29.99 "Hg
* Reported Sep 16 5:50 AM — Oct 1 5:50 AM, San Salvador, Weather by CustomWeather, © 2016

Note: Actual official high and low records may vary slightly from our data, if they occured in-between our weather recording intervals... More about our weather records

Advertising

San Salvador Weather History for the Previous 24 Hours

Scroll right to see more
 ConditionsComfort  
Time TempWeatherWind HumidityBarometerVisibility
5:50 AM
Sat, Oct 1
70 °FPassing clouds.5 mph100%29.98 "HgN/A
11:50 PM
Fri, Sep 30
70 °FLight rain. Passing clouds.3 mph94%30.01 "HgN/A
10:50 PM68 °FThunderstorms. Passing clouds.3 mph94%30.04 "Hg6 mi
9:50 PM70 °FStrong thunderstorms. Partly cloudy.16 mph94%30.04 "Hg1 mi
7:50 PM75 °FPassing clouds.3 mph94%30.01 "HgN/A
6:50 PM75 °FPassing clouds.7 mph94%29.98 "HgN/A
5:50 PM79 °FPassing clouds.8 mph89%29.95 "HgN/A
4:50 PM82 °FPassing clouds.3 mph74%29.95 "HgN/A
3:50 PM86 °FPassing clouds.2 mph62%29.98 "HgN/A
2:50 PM86 °FPassing clouds.3 mph66%29.98 "HgN/A
1:50 PM88 °FScattered clouds.8 mph62%30.01 "HgN/A
12:50 PM86 °FPassing clouds.No wind62%30.01 "HgN/A
11:50 AM86 °FPassing clouds.8 mph62%29.98 "HgN/A
10:50 AM82 °FPassing clouds.2 mph74%30.04 "HgN/A
9:50 AM81 °FSunny.10 mph74%30.04 "Hg10 mi
8:50 AM77 °FSunny.7 mph83%30.04 "Hg10 mi
7:50 AM72 °FSunny.8 mph94%30.04 "Hg10 mi
Weather by CustomWeather, © 2016

See weather overviewHow to use our weather pages